Kiana, AK

11:42 AM AKST on February 26, 2017 (GMT -0900)
Baker Memorial

Weather History for PAIK - February, 2013

Change the Weather History Date:

Thursday, February 28, 2013

  Actual Average (PASK) Record (PASK)
Temperature  
Mean Temperature 0 °F -  
Max Temperature -4 °F 5 °F 32 °F (2015)
Min Temperature -8 °F -3 °F -32 °F (1998)
Degree Days  
Heating Degree Days 64    
Moisture  
Dew Point -4 °F    
Average Humidity 73    
Maximum Humidity 83    
Minimum Humidity 64    
Precipitation  
Precipitation 0.00 in - - ()
Sea Level Pressure  
Sea Level Pressure 29.69 in    
Wind  
Wind Speed 3 mph (South)    
Max Wind Speed 13 mph    
Max Gust Speed -    
Visibility 10 miles    
Events      
Averages and records for this station are not official NWS values.
T = Trace of Precipitation, MM = Missing Value Source: NWS Daily Summary

Daily Weather History Graph

Daily Weather History Graph

Search for Another Location

Airport or City:

Trip Planner

Search our weather history database for the weather conditions in past years. The results will help you decide how hot, cold, wet, or windy it might be!

Date:

Astronomy

Feb. 28, 2013 Rise Set
Actual Time 8:59 AM AKST 6:50 PM AKST
Civil Twilight 8:05 AM AKST 7:44 PM AKST
Nautical Twilight 7:04 AM AKST 8:46 PM AKST
Astronomical Twilight 6:00 AM AKST 9:50 PM AKST
Moon No Moon Rise 8:33 AM AKST (2/28)
Length of Visible Light 11h 39m
Length of Day
9h 51m
Waning Gibbous, 90% of the Moon is Illuminated
Feb 28
Waning Gibbous
Mar 4
Last Quarter
Mar 11
New
Mar 19
First Quarter
Mar 27
Full

Hourly Weather History & Observations

Time (AKST) Temp. Windchill Dew Point Humidity Pressure Visibility Wind Dir Wind Speed Gust Speed Precip Events Conditions
12:01 AM -8.0 °F - -13.0 °F 79% 29.59 in 10.0 mi Calm Calm - N/A   Clear
1:01 AM -7.1 °F - -11.9 °F 79% 29.60 in 10.0 mi Calm Calm - N/A   Scattered Clouds
2:01 AM 1.0 °F -8.7 °F -5.1 °F 75% 29.60 in 10.0 mi NE 4.6 mph - N/A   Overcast
3:01 AM 3.0 °F - -2.9 °F 76% 29.60 in 10.0 mi Calm Calm - N/A   Overcast
4:01 AM 6.1 °F - -2.0 °F 69% 29.60 in 10.0 mi Calm Calm - N/A   Overcast
5:01 AM 5.0 °F - -2.0 °F 73% 29.60 in 10.0 mi Calm Calm - N/A   Clear
6:01 AM 8.1 °F 1.4 °F -0.0 °F 70% 29.61 in 10.0 mi East 3.5 mph - N/A   Overcast
7:01 AM 6.1 °F -2.8 °F -0.9 °F 73% 29.62 in 10.0 mi East 4.6 mph - N/A   Clear
8:01 AM 5.0 °F -2.1 °F -2.0 °F 73% 29.64 in 10.0 mi East 3.5 mph - N/A   Partly Cloudy
9:01 AM 3.9 °F - -2.9 °F 73% 29.65 in 10.0 mi Calm Calm - N/A   Partly Cloudy
10:01 AM 8.1 °F 1.4 °F -0.9 °F 67% 29.66 in 10.0 mi SE 3.5 mph - N/A   Clear
11:01 AM 9.0 °F -0.9 °F -0.9 °F 64% 29.67 in 10.0 mi Variable 5.8 mph - N/A   Clear
12:01 PM 7.0 °F -1.7 °F -2.9 °F 64% 29.69 in 10.0 mi SSW 4.6 mph - N/A   Clear
1:01 PM 3.9 °F -6.9 °F -4.0 °F 70% 29.70 in 10.0 mi SW 5.8 mph - N/A   Overcast
2:01 PM 6.1 °F -5.6 °F -2.9 °F 67% 29.70 in 10.0 mi South 6.9 mph - N/A   Overcast
3:01 PM 9.0 °F -2.2 °F -0.9 °F 64% 29.71 in 10.0 mi WSW 6.9 mph - N/A   Overcast
4:01 PM 8.1 °F -0.5 °F -0.9 °F 67% 29.72 in 10.0 mi SSW 4.6 mph - N/A   Overcast
5:01 PM 5.0 °F -8.1 °F -2.0 °F 73% 29.73 in 10.0 mi SSW 8.1 mph - N/A   Overcast
6:01 PM 1.9 °F -14.7 °F -4.0 °F 76% 29.75 in 10.0 mi SSW 11.5 mph - N/A   Overcast
7:01 PM -0.9 °F -16.4 °F -6.0 °F 79% 29.77 in 10.0 mi SSW 9.2 mph - N/A   Overcast
8:01 PM -2.9 °F -18.8 °F -8.0 °F 79% 29.80 in 10.0 mi SSW 9.2 mph - N/A   Overcast
9:01 PM -4.0 °F -23.0 °F -8.0 °F 83% 29.83 in 10.0 mi SSW 12.7 mph - N/A   Overcast
10:01 PM -4.0 °F -21.2 °F -9.0 °F 79% 29.86 in 10.0 mi SW 10.4 mph - N/A   Overcast
11:01 PM -4.0 °F -20.2 °F -8.0 °F 83% 29.87 in 10.0 mi SSW 9.2 mph - N/A   Overcast